FENGYUN 1C DEB, 31165

Orbit data source: Space-Track

FENGYUN 1C DEB, 31165 is space debris in SSO originally from a launch on Mon, 10 May 1999 UTC launched from the Taiyaun Space Center, China (TSC). Fengyun 1C debris stems from the Chinese weather satellite Fengyun-1C, which was intentionally destroyed by a Chinese anti-satellite missile in 2007. This event dramatically increased the amount of space debris, with thousands of trackable fragments posing hazards to satellites and human spaceflight. The Fengyun 1C debris cloud has become a focal point in discussions about space sustainability and the need for international regulations to prevent the creation of new debris.

Loading next visibility...
Identifier
31165, 1999-025BHT
Orbit
SSO
Country
Flag of CNCN / PRC
Related business
Manufacturer
Unknown
Mission
Spacecraft
Bus & Motor
Unknown
Mass
Unknown
Launch date (UTC)
1999-05-10 (27 years ago)
Launch vehicle
Unknown
Launch site
Taiyaun Space Center, China (TSC)
Object type
Payload
Rocket body
Debris
Shape & HBR
Unknown shape, 0.1 m
Radar Cross Section
Small (<0.1 m²)

Expand to show TLE details & history
Last TLE update: 20 hours ago

TLE from 20 hours ago
0 FENGYUN 1C DEB
1 31165U 99025BHT 26206.48897200  .00005379  00000-0  79479-3 0  9998
2 31165  98.8661 291.8895 0064515 252.4700 172.5086 14.74308537 20530
Epoch: 2026-07-25T11:44Z
TLE epoch observation values (Epoch: 2026-07-25T11:44:07.180Z)
Latitude
63.73244°
Longitude
154.33593°
Altitude
703.241 km
Speed
7.486 km/s
True Right ascension
18h 14m 15s
True Declination
63° 35' 41"
Sunlit
Object was in daylight at epoch
Visualization orbit readout
Latitude
Unknown
Longitude
Unknown
Altitude
Unknown
Speed
Unknown
Apparent Right ascension
Unknown
Apparent Declination
Unknown
Sunlit
N/A
Visualization observer readout
Local Sidereal Time
21:20:03
Azimuth
Unknown
Elevation
Unknown
Doppler factor
Unknown
Orbital elements
Apogee altitude
689.747 km
Perigee altitude
599.135 km
Semi-major axis
7,022.578 km
Eccentricity
0.00645
Inclination
98.8661°
RAAN
291.8895°
Arg. of periapsis
252.47°
True anomaly
172.60422°
Mean anomaly
172.5086°
Eccentric anomaly
172.55649°
Mean motion
3.68806 °/min
Orbital period
97.61 mins
BSTAR
0.00079479
Loading maneuver chart data...
Computing Atmospheric mass density...

Documentation

Showing up to 5 results
|